Year,Month,Day,Hour,Minute,Value (Times are PST for temperature in C)
2008,10,01,00,00,10.90
2008,10,01,00,01,10.90
2008,10,01,00,02,10.90
2008,10,01,00,03,10.90
2008,10,01,00,04,10.90
2008,10,01,00,05,10.90
2008,10,01,00,06,10.80
2008,10,01,00,07,10.80
2008,10,01,00,08,10.80
2008,10,01,00,09,10.80
2008,10,01,00,10,10.80
2008,10,01,00,11,10.80
2008,10,01,00,12,10.70
2008,10,01,00,13,10.70
2008,10,01,00,14,10.70
2008,10,01,00,15,10.70
2008,10,01,00,16,10.70
2008,10,01,00,17,10.70
2008,10,01,00,18,10.70
2008,10,01,00,19,10.70
2008,10,01,00,20,10.70
2008,10,01,00,21,10.70
2008,10,01,00,22,10.70
2008,10,01,00,23,10.70
2008,10,01,00,24,10.70
2008,10,01,00,25,10.70
2008,10,01,00,26,10.70
2008,10,01,00,27,10.70
2008,10,01,00,28,10.70
2008,10,01,00,29,10.70
2008,10,01,00,30,10.70
2008,10,01,00,31,10.60
2008,10,01,00,32,10.60
2008,10,01,00,33,10.60
2008,10,01,00,34,10.60
2008,10,01,00,35,10.60
2008,10,01,00,36,10.60
2008,10,01,00,37,10.50
2008,10,01,00,38,10.40
2008,10,01,00,39,10.40
2008,10,01,00,40,10.40
2008,10,01,00,41,10.40
2008,10,01,00,42,10.40
2008,10,01,00,43,10.40
2008,10,01,00,44,10.40
2008,10,01,00,45,10.40
2008,10,01,00,46,10.40
2008,10,01,00,47,10.40
2008,10,01,00,48,10.40
2008,10,01,00,49,10.40
2008,10,01,00,50,10.40
2008,10,01,00,51,10.40
2008,10,01,00,52,10.40
2008,10,01,00,53,10.40
2008,10,01,00,54,10.40
2008,10,01,00,55,10.40
2008,10,01,00,56,10.40
2008,10,01,00,57,10.30
2008,10,01,00,58,10.30
2008,10,01,00,59,10.30
2008,10,01,01,00,10.30
2008,10,01,01,01,10.30
2008,10,01,01,02,10.30
2008,10,01,01,03,10.30
2008,10,01,01,04,10.30
2008,10,01,01,05,10.40
2008,10,01,01,06,10.40
2008,10,01,01,07,10.40
2008,10,01,01,08,10.40
2008,10,01,01,09,10.40
2008,10,01,01,10,10.40
2008,10,01,01,11,10.40
2008,10,01,01,12,10.40
2008,10,01,01,13,10.40
2008,10,01,01,14,10.40
2008,10,01,01,15,10.40
2008,10,01,01,16,10.40
2008,10,01,01,17,10.40
2008,10,01,01,18,10.40
2008,10,01,01,19,10.40
2008,10,01,01,20,10.40
2008,10,01,01,21,10.40
2008,10,01,01,22,10.40
2008,10,01,01,23,10.60
2008,10,01,01,24,10.60
2008,10,01,01,25,10.60
2008,10,01,01,26,10.60
2008,10,01,01,27,10.60
2008,10,01,01,28,10.50
2008,10,01,01,29,10.40
2008,10,01,01,30,10.40
2008,10,01,01,31,10.40
2008,10,01,01,32,10.40
2008,10,01,01,33,10.40
2008,10,01,01,34,10.40
2008,10,01,01,35,10.40
2008,10,01,01,36,10.40
2008,10,01,01,37,10.40
2008,10,01,01,38,10.40
2008,10,01,01,39,10.40
2008,10,01,01,40,10.40
2008,10,01,01,41,10.40
2008,10,01,01,42,10.40
2008,10,01,01,43,10.40
2008,10,01,01,44,10.40
2008,10,01,01,45,10.30
2008,10,01,01,46,10.30
2008,10,01,01,47,10.30
2008,10,01,01,48,10.30
2008,10,01,01,49,10.30
2008,10,01,01,50,10.30
2008,10,01,01,51,10.30
2008,10,01,01,52,10.20
2008,10,01,01,53,10.20
2008,10,01,01,54,10.10
2008,10,01,01,55,10.10
2008,10,01,01,56,10.10
2008,10,01,01,57,10.10
2008,10,01,01,58,10.10
2008,10,01,01,59,10.10
2008,10,01,02,00,10.00
2008,10,01,02,01,9.90
2008,10,01,02,02,9.90
2008,10,01,02,03,9.90
2008,10,01,02,04,9.90
2008,10,01,02,05,10.10
2008,10,01,02,06,10.10
2008,10,01,02,07,10.10
2008,10,01,02,08,10.00
2008,10,01,02,09,9.90
2008,10,01,02,10,9.90
2008,10,01,02,11,9.90
2008,10,01,02,12,9.90
2008,10,01,02,13,9.90
2008,10,01,02,14,9.90
2008,10,01,02,15,9.90
2008,10,01,02,16,9.90
2008,10,01,02,17,9.90
2008,10,01,02,18,9.90
2008,10,01,02,19,9.90
2008,10,01,02,20,9.90
2008,10,01,02,21,9.90
2008,10,01,02,22,9.90
2008,10,01,02,23,9.90
2008,10,01,02,24,10.10
2008,10,01,02,25,10.10
2008,10,01,02,26,10.10
2008,10,01,02,27,10.10
2008,10,01,02,28,10.10
2008,10,01,02,29,10.10
2008,10,01,02,30,10.10
2008,10,01,02,31,10.10
2008,10,01,02,32,10.10
2008,10,01,02,33,10.10
2008,10,01,02,34,10.10
2008,10,01,02,35,10.10
2008,10,01,02,36,10.10
2008,10,01,02,37,10.10
2008,10,01,02,38,10.10
2008,10,01,02,39,10.20
2008,10,01,02,40,10.20
2008,10,01,02,41,10.20
2008,10,01,02,42,10.20
2008,10,01,02,43,10.20
2008,10,01,02,44,10.10
2008,10,01,02,45,10.10
2008,10,01,02,46,10.10
2008,10,01,02,47,10.10
2008,10,01,02,48,10.10
2008,10,01,02,49,10.10
2008,10,01,02,50,10.10
2008,10,01,02,51,10.10
2008,10,01,02,52,10.20
2008,10,01,02,53,10.20
2008,10,01,02,54,10.20
2008,10,01,02,55,10.20
2008,10,01,02,56,10.20
2008,10,01,02,57,10.30
2008,10,01,02,58,10.30
2008,10,01,02,59,10.30
2008,10,01,03,00,10.30
2008,10,01,03,01,10.30
2008,10,01,03,02,10.20
2008,10,01,03,03,10.20
2008,10,01,03,04,10.20
2008,10,01,03,05,10.20
2008,10,01,03,06,10.20
2008,10,01,03,07,10.10
2008,10,01,03,08,10.10
2008,10,01,03,09,10.10
2008,10,01,03,10,10.10
2008,10,01,03,11,10.10
2008,10,01,03,12,10.10
2008,10,01,03,13,10.10
2008,10,01,03,14,10.10
2008,10,01,03,15,10.10
2008,10,01,03,16,10.10
2008,10,01,03,17,10.10
2008,10,01,03,18,10.10
2008,10,01,03,19,10.10
2008,10,01,03,20,10.10
2008,10,01,03,21,10.10
2008,10,01,03,22,10.10
2008,10,01,03,23,10.10
2008,10,01,03,24,10.10
2008,10,01,03,25,10.10
2008,10,01,03,26,10.10
2008,10,01,03,27,10.10
2008,10,01,03,28,10.20
2008,10,01,03,29,10.20
2008,10,01,03,30,10.20
2008,10,01,03,31,10.20
2008,10,01,03,32,10.20
2008,10,01,03,33,10.20
2008,10,01,03,34,10.10
2008,10,01,03,35,10.10
2008,10,01,03,36,10.10
2008,10,01,03,37,10.10
2008,10,01,03,38,10.10
2008,10,01,03,39,10.10
2008,10,01,03,40,10.10
2008,10,01,03,41,10.10
2008,10,01,03,42,10.10
2008,10,01,03,43,10.10
2008,10,01,03,44,10.10
2008,10,01,03,45,9.90
2008,10,01,03,46,9.90
2008,10,01,03,47,9.90
2008,10,01,03,48,9.90
2008,10,01,03,49,9.90
2008,10,01,03,50,9.90
2008,10,01,03,51,9.80
2008,10,01,03,52,9.80
2008,10,01,03,53,9.80
2008,10,01,03,54,9.70
2008,10,01,03,55,9.70
2008,10,01,03,56,9.70
2008,10,01,03,57,9.70
2008,10,01,03,58,9.70
2008,10,01,03,59,9.70
2008,10,01,04,00,9.70
2008,10,01,04,01,9.60
2008,10,01,04,02,9.60
2008,10,01,04,03,9.60
2008,10,01,04,04,9.60
2008,10,01,04,05,9.60
2008,10,01,04,06,9.60
2008,10,01,04,07,9.60
2008,10,01,04,08,9.60
2008,10,01,04,09,9.70
2008,10,01,04,10,9.70
2008,10,01,04,11,9.70
2008,10,01,04,12,9.70
2008,10,01,04,13,9.70
2008,10,01,04,14,9.70
2008,10,01,04,15,9.70
2008,10,01,04,16,9.70
2008,10,01,04,17,9.70
2008,10,01,04,18,9.70
2008,10,01,04,19,9.70
2008,10,01,04,20,9.70
2008,10,01,04,21,9.70
2008,10,01,04,22,9.70
2008,10,01,04,23,9.70
2008,10,01,04,24,9.60
2008,10,01,04,25,9.60
2008,10,01,04,26,9.60
2008,10,01,04,27,9.60
2008,10,01,04,28,9.50
2008,10,01,04,29,9.50
2008,10,01,04,30,9.40
2008,10,01,04,31,9.40
2008,10,01,04,32,9.40
2008,10,01,04,33,9.30
2008,10,01,04,34,9.30
2008,10,01,04,35,9.30
2008,10,01,04,36,9.30
2008,10,01,04,37,9.30
2008,10,01,04,38,9.40
2008,10,01,04,39,9.40
2008,10,01,04,40,9.40
2008,10,01,04,41,9.40
2008,10,01,04,42,9.40
2008,10,01,04,43,9.40
2008,10,01,04,44,9.40
2008,10,01,04,45,9.40
2008,10,01,04,46,9.40
2008,10,01,04,47,9.30
2008,10,01,04,48,9.30
2008,10,01,04,49,9.30
2008,10,01,04,50,9.30
2008,10,01,04,51,9.40
2008,10,01,04,52,9.40
2008,10,01,04,53,9.40
2008,10,01,04,54,9.50
2008,10,01,04,55,9.50
2008,10,01,04,56,9.50
2008,10,01,04,57,9.60
2008,10,01,04,58,9.60
2008,10,01,04,59,9.60
2008,10,01,05,00,9.60
2008,10,01,05,01,9.60
2008,10,01,05,02,9.60
2008,10,01,05,03,9.50
2008,10,01,05,04,9.50
2008,10,01,05,05,9.50
2008,10,01,05,06,9.50
2008,10,01,05,07,9.50
2008,10,01,05,08,9.50
2008,10,01,05,09,9.50
2008,10,01,05,10,9.40
2008,10,01,05,11,9.40
2008,10,01,05,12,9.40
2008,10,01,05,13,9.40
2008,10,01,05,14,9.40
2008,10,01,05,15,9.40
2008,10,01,05,16,9.40
2008,10,01,05,17,9.40
2008,10,01,05,18,9.40
2008,10,01,05,19,9.40
2008,10,01,05,20,9.40
2008,10,01,05,21,9.40
2008,10,01,05,22,9.50
2008,10,01,05,23,9.40
2008,10,01,05,24,9.40
2008,10,01,05,25,9.40
2008,10,01,05,26,9.40
2008,10,01,05,27,9.30
2008,10,01,05,28,9.30
2008,10,01,05,29,9.20
2008,10,01,05,30,9.20
2008,10,01,05,31,9.20
2008,10,01,05,32,9.20
2008,10,01,05,33,9.20
2008,10,01,05,34,9.20
2008,10,01,05,35,9.20
2008,10,01,05,36,9.20
2008,10,01,05,37,9.20
2008,10,01,05,38,9.20
2008,10,01,05,39,9.20
2008,10,01,05,40,9.20
2008,10,01,05,41,9.30
2008,10,01,05,42,9.30
2008,10,01,05,43,9.30
2008,10,01,05,44,9.40
2008,10,01,05,45,9.40
2008,10,01,05,46,9.40
2008,10,01,05,47,9.40
2008,10,01,05,48,9.40
2008,10,01,05,49,9.50
2008,10,01,05,50,9.50
2008,10,01,05,51,9.50
2008,10,01,05,52,9.50
2008,10,01,05,53,9.60
2008,10,01,05,54,9.60
2008,10,01,05,55,9.60
2008,10,01,05,56,9.70
2008,10,01,05,57,9.70
2008,10,01,05,58,9.70
2008,10,01,05,59,9.70
2008,10,01,06,00,9.70
2008,10,01,06,01,9.60
2008,10,01,06,02,9.60
2008,10,01,06,03,9.50
2008,10,01,06,04,9.50
2008,10,01,06,05,9.40
2008,10,01,06,06,9.40
2008,10,01,06,07,9.40
2008,10,01,06,08,9.40
2008,10,01,06,09,9.40
2008,10,01,06,10,9.40
2008,10,01,06,11,9.40
2008,10,01,06,12,9.40
2008,10,01,06,13,9.40
2008,10,01,06,14,9.40
2008,10,01,06,15,9.40
2008,10,01,06,16,9.40
2008,10,01,06,17,9.40
2008,10,01,06,18,9.40
2008,10,01,06,19,9.30
2008,10,01,06,20,9.30
2008,10,01,06,21,9.20
2008,10,01,06,22,9.20
2008,10,01,06,23,9.20
2008,10,01,06,24,9.20
2008,10,01,06,25,9.20
2008,10,01,06,26,9.10
2008,10,01,06,27,9.10
2008,10,01,06,28,9.10
2008,10,01,06,29,9.10
2008,10,01,06,30,9.10
2008,10,01,06,31,9.10
2008,10,01,06,32,9.10
2008,10,01,06,33,9.00
2008,10,01,06,34,9.00
2008,10,01,06,35,9.00
2008,10,01,06,36,9.00
2008,10,01,06,37,9.00
2008,10,01,06,38,9.00
2008,10,01,06,39,9.10
2008,10,01,06,40,9.10
2008,10,01,06,41,9.10
2008,10,01,06,42,9.10
2008,10,01,06,43,9.10
2008,10,01,06,44,9.10
2008,10,01,06,45,9.10
2008,10,01,06,46,9.10
2008,10,01,06,47,9.10
2008,10,01,06,48,9.00
2008,10,01,06,49,9.00
2008,10,01,06,50,9.00
2008,10,01,06,51,9.10
2008,10,01,06,52,9.10
2008,10,01,06,53,9.10
2008,10,01,06,54,9.10
2008,10,01,06,55,9.10
2008,10,01,06,56,9.10
2008,10,01,06,57,9.10
2008,10,01,06,58,9.10
2008,10,01,06,59,9.10
2008,10,01,07,00,9.10
2008,10,01,07,01,9.10
2008,10,01,07,02,9.00
2008,10,01,07,03,9.00
2008,10,01,07,04,9.00
2008,10,01,07,05,9.00
2008,10,01,07,06,9.00
2008,10,01,07,07,9.00
2008,10,01,07,08,9.00
2008,10,01,07,09,9.10
2008,10,01,07,10,9.10
2008,10,01,07,11,9.10
2008,10,01,07,12,9.00
2008,10,01,07,13,9.00
2008,10,01,07,14,9.00
2008,10,01,07,15,9.00
2008,10,01,07,16,9.00
2008,10,01,07,17,9.00
2008,10,01,07,18,9.00
2008,10,01,07,19,9.00
2008,10,01,07,20,8.90
2008,10,01,07,21,8.90
2008,10,01,07,22,8.90
2008,10,01,07,23,8.90
2008,10,01,07,24,8.80
2008,10,01,07,25,8.80
2008,10,01,07,26,8.80
2008,10,01,07,27,8.80
2008,10,01,07,28,8.80
2008,10,01,07,29,8.80
2008,10,01,07,30,8.90
2008,10,01,07,31,8.90
2008,10,01,07,32,8.90
2008,10,01,07,33,8.90
2008,10,01,07,34,8.90
2008,10,01,07,35,8.90
2008,10,01,07,36,8.90
2008,10,01,07,37,8.90
2008,10,01,07,38,9.00
2008,10,01,07,39,9.00
2008,10,01,07,40,9.10
2008,10,01,07,41,9.10
2008,10,01,07,42,9.00
2008,10,01,07,43,9.00
2008,10,01,07,44,9.00
2008,10,01,07,45,9.10
2008,10,01,07,46,9.10
2008,10,01,07,47,9.10
2008,10,01,07,48,9.10
2008,10,01,07,49,9.10
2008,10,01,07,50,9.20
2008,10,01,07,51,9.20
2008,10,01,07,52,9.20
2008,10,01,07,53,9.20
2008,10,01,07,54,9.20
2008,10,01,07,55,9.20
2008,10,01,07,56,9.20
2008,10,01,07,57,9.20
2008,10,01,07,58,9.30
2008,10,01,07,59,9.30
2008,10,01,08,00,9.30
2008,10,01,08,01,9.40
2008,10,01,08,02,9.40
2008,10,01,08,03,9.40
2008,10,01,08,04,9.50
2008,10,01,08,05,9.50
2008,10,01,08,06,9.60
2008,10,01,08,07,9.60
2008,10,01,08,08,9.70
2008,10,01,08,09,9.70
2008,10,01,08,10,9.70
2008,10,01,08,11,9.70
2008,10,01,08,12,9.70
2008,10,01,08,13,9.70
2008,10,01,08,14,9.70
2008,10,01,08,15,9.70
2008,10,01,08,16,9.70
2008,10,01,08,17,9.70
2008,10,01,08,18,9.70
2008,10,01,08,19,9.70
2008,10,01,08,20,9.70
2008,10,01,08,21,9.70
2008,10,01,08,22,9.70
2008,10,01,08,23,9.70
2008,10,01,08,24,9.80
2008,10,01,08,25,9.80
2008,10,01,08,26,9.80
2008,10,01,08,27,9.90
2008,10,01,08,28,9.90
2008,10,01,08,29,9.90
2008,10,01,08,30,10.00
2008,10,01,08,31,10.10
2008,10,01,08,32,10.10
2008,10,01,08,33,10.10
2008,10,01,08,34,10.10
2008,10,01,08,35,10.20
2008,10,01,08,36,10.30
2008,10,01,08,37,10.30
2008,10,01,08,38,10.40
2008,10,01,08,39,10.40
2008,10,01,08,40,10.50
2008,10,01,08,41,10.60
2008,10,01,08,42,10.60
2008,10,01,08,43,10.60
2008,10,01,08,44,10.70
2008,10,01,08,45,10.80
2008,10,01,08,46,10.90
2008,10,01,08,47,10.90
2008,10,01,08,48,11.00
2008,10,01,08,49,11.10
2008,10,01,08,50,11.10
2008,10,01,08,51,11.20
2008,10,01,08,52,11.20
2008,10,01,08,53,11.10
2008,10,01,08,54,11.10
2008,10,01,08,55,11.10
2008,10,01,08,56,11.10
2008,10,01,08,57,11.10
2008,10,01,08,58,11.10
2008,10,01,08,59,11.10
2008,10,01,09,00,11.10
2008,10,01,09,01,11.10
2008,10,01,09,02,11.10
2008,10,01,09,03,11.10
2008,10,01,09,04,11.10
2008,10,01,09,05,11.10
2008,10,01,09,06,11.00
2008,10,01,09,07,10.90
2008,10,01,09,08,10.90
2008,10,01,09,09,10.90
2008,10,01,09,10,10.90
2008,10,01,09,11,10.80
2008,10,01,09,12,10.80
2008,10,01,09,13,10.80
2008,10,01,09,14,10.80
2008,10,01,09,15,10.80
2008,10,01,09,16,10.70
2008,10,01,09,17,10.70
2008,10,01,09,18,10.70
2008,10,01,09,19,10.80
2008,10,01,09,20,10.80
2008,10,01,09,21,10.90
2008,10,01,09,22,10.90
2008,10,01,09,23,11.00
2008,10,01,09,24,11.10
2008,10,01,09,25,11.20
2008,10,01,09,26,11.20
2008,10,01,09,27,11.20
2008,10,01,09,28,11.20
2008,10,01,09,29,11.30
2008,10,01,09,30,11.30
2008,10,01,09,31,11.30
2008,10,01,09,32,11.30
2008,10,01,09,33,11.40
2008,10,01,09,34,11.40
2008,10,01,09,35,11.40
2008,10,01,09,36,11.50
2008,10,01,09,37,11.60
2008,10,01,09,38,11.60
2008,10,01,09,39,11.70
2008,10,01,09,40,11.70
2008,10,01,09,41,11.80
2008,10,01,09,42,11.80
2008,10,01,09,43,11.90
2008,10,01,09,44,11.90
2008,10,01,09,45,11.90
2008,10,01,09,46,11.80
2008,10,01,09,47,11.80
2008,10,01,09,48,11.70
2008,10,01,09,49,11.70
2008,10,01,09,50,11.70
2008,10,01,09,51,11.60
2008,10,01,09,52,11.60
2008,10,01,09,53,11.60
2008,10,01,09,54,11.70
2008,10,01,09,55,11.70
2008,10,01,09,56,11.70
2008,10,01,09,57,11.80
2008,10,01,09,58,11.80
2008,10,01,09,59,11.80
2008,10,01,10,00,11.80
2008,10,01,10,01,11.90
2008,10,01,10,02,11.90
2008,10,01,10,03,12.00
2008,10,01,10,04,12.00
2008,10,01,10,05,12.10
2008,10,01,10,06,12.20
2008,10,01,10,07,12.30
2008,10,01,10,08,12.30
2008,10,01,10,09,12.30
2008,10,01,10,10,12.30
2008,10,01,10,11,12.30
2008,10,01,10,12,12.30
2008,10,01,10,13,12.30
2008,10,01,10,14,12.30
2008,10,01,10,15,12.30
2008,10,01,10,16,12.30
2008,10,01,10,17,12.40
2008,10,01,10,18,12.40
2008,10,01,10,19,12.50
2008,10,01,10,20,12.50
2008,10,01,10,21,12.60
2008,10,01,10,22,12.60
2008,10,01,10,23,12.70
2008,10,01,10,24,12.70
2008,10,01,10,25,12.70
2008,10,01,10,26,12.80
2008,10,01,10,27,12.80
2008,10,01,10,28,12.80
2008,10,01,10,29,12.80
2008,10,01,10,30,12.80
2008,10,01,10,31,12.80
2008,10,01,10,32,12.80
2008,10,01,10,33,12.80
2008,10,01,10,34,12.70
2008,10,01,10,35,12.60
2008,10,01,10,36,12.50
2008,10,01,10,37,12.50
2008,10,01,10,38,12.40
2008,10,01,10,39,12.40
2008,10,01,10,40,12.30
2008,10,01,10,41,12.20
2008,10,01,10,42,12.20
2008,10,01,10,43,12.20
2008,10,01,10,44,12.30
2008,10,01,10,45,12.30
2008,10,01,10,46,12.30
2008,10,01,10,47,12.20
2008,10,01,10,48,12.00
2008,10,01,10,49,11.80
2008,10,01,10,50,11.60
2008,10,01,10,51,11.40
2008,10,01,10,52,11.30
2008,10,01,10,53,11.30
2008,10,01,10,54,11.30
2008,10,01,10,55,11.40
2008,10,01,10,56,11.50
2008,10,01,10,57,11.60
2008,10,01,10,58,11.70
2008,10,01,10,59,11.80
2008,10,01,11,00,11.80
2008,10,01,11,01,11.90
2008,10,01,11,02,12.00
2008,10,01,11,03,12.20
2008,10,01,11,04,12.30
2008,10,01,11,05,12.40
2008,10,01,11,06,12.50
2008,10,01,11,07,12.60
2008,10,01,11,08,12.60
2008,10,01,11,09,12.80
2008,10,01,11,10,13.00
2008,10,01,11,11,13.10
2008,10,01,11,12,13.20
2008,10,01,11,13,13.20
2008,10,01,11,14,13.30
2008,10,01,11,15,13.40
2008,10,01,11,16,13.40
2008,10,01,11,17,13.40
2008,10,01,11,18,13.40
2008,10,01,11,19,13.20
2008,10,01,11,20,13.10
2008,10,01,11,21,13.10
2008,10,01,11,22,13.10
2008,10,01,11,23,13.20
2008,10,01,11,24,13.30
2008,10,01,11,25,13.40
2008,10,01,11,26,13.40
2008,10,01,11,27,13.30
2008,10,01,11,28,13.20
2008,10,01,11,29,13.10
2008,10,01,11,30,13.00
2008,10,01,11,31,12.90
2008,10,01,11,32,12.80
2008,10,01,11,33,12.80
2008,10,01,11,34,12.70
2008,10,01,11,35,12.70
2008,10,01,11,36,12.70
2008,10,01,11,37,12.70
2008,10,01,11,38,12.60
2008,10,01,11,39,12.50
2008,10,01,11,40,12.40
2008,10,01,11,41,12.20
2008,10,01,11,42,12.10
2008,10,01,11,43,11.90
2008,10,01,11,44,11.70
2008,10,01,11,45,11.60
2008,10,01,11,46,11.60
2008,10,01,11,47,11.40
2008,10,01,11,48,11.40
2008,10,01,11,49,11.30
2008,10,01,11,50,11.20
2008,10,01,11,51,11.20
2008,10,01,11,52,11.30
2008,10,01,11,53,11.30
2008,10,01,11,54,11.30
2008,10,01,11,55,11.40
2008,10,01,11,56,11.40
2008,10,01,11,57,11.40
2008,10,01,11,58,11.50
2008,10,01,11,59,11.60
2008,10,01,12,00,11.60
2008,10,01,12,01,11.60
2008,10,01,12,02,11.70
2008,10,01,12,03,11.80
2008,10,01,12,04,11.90
2008,10,01,12,05,12.00
2008,10,01,12,06,12.10
2008,10,01,12,07,12.20
2008,10,01,12,08,12.30
2008,10,01,12,09,12.10
2008,10,01,12,10,12.00
2008,10,01,12,11,11.90
2008,10,01,12,12,11.80
2008,10,01,12,13,11.80
2008,10,01,12,14,11.80
2008,10,01,12,15,11.80
2008,10,01,12,16,11.90
2008,10,01,12,17,11.90
2008,10,01,12,18,11.80
2008,10,01,12,19,11.90
2008,10,01,12,20,12.00
2008,10,01,12,21,12.10
2008,10,01,12,22,12.20
2008,10,01,12,23,12.20
2008,10,01,12,24,12.30
2008,10,01,12,25,12.30
2008,10,01,12,26,12.30
2008,10,01,12,27,12.40
2008,10,01,12,28,12.50
2008,10,01,12,29,12.60
2008,10,01,12,30,12.70
2008,10,01,12,31,12.80
2008,10,01,12,32,12.90
2008,10,01,12,33,13.10
2008,10,01,12,34,13.20
2008,10,01,12,35,13.30
2008,10,01,12,36,13.50
2008,10,01,12,37,13.60
2008,10,01,12,38,13.70
2008,10,01,12,39,13.70
2008,10,01,12,40,13.80
2008,10,01,12,41,13.90
2008,10,01,12,42,14.00
2008,10,01,12,43,14.00
2008,10,01,12,44,13.90
2008,10,01,12,45,13.70
2008,10,01,12,46,13.40
2008,10,01,12,47,13.10
2008,10,01,12,48,12.90
2008,10,01,12,49,12.80
2008,10,01,12,50,12.80
2008,10,01,12,51,12.80
2008,10,01,12,52,12.80
2008,10,01,12,53,12.80
2008,10,01,12,54,12.70
2008,10,01,12,55,12.70
2008,10,01,12,56,12.70
2008,10,01,12,57,12.70
2008,10,01,12,58,12.70
2008,10,01,12,59,12.80
2008,10,01,13,00,12.80
2008,10,01,13,01,12.80
2008,10,01,13,02,12.80
2008,10,01,13,03,12.70
2008,10,01,13,04,12.70
2008,10,01,13,05,12.70
2008,10,01,13,06,12.80
2008,10,01,13,07,12.80
2008,10,01,13,08,12.90
2008,10,01,13,09,13.00
2008,10,01,13,10,13.10
2008,10,01,13,11,13.10
2008,10,01,13,12,13.20
2008,10,01,13,13,13.10
2008,10,01,13,14,13.00
2008,10,01,13,15,12.90
2008,10,01,13,16,12.70
2008,10,01,13,17,12.60
2008,10,01,13,18,12.60
2008,10,01,13,19,12.60
2008,10,01,13,20,12.60
2008,10,01,13,21,12.60
2008,10,01,13,22,12.50
2008,10,01,13,23,12.50
2008,10,01,13,24,12.40
2008,10,01,13,25,12.30
2008,10,01,13,26,12.30
2008,10,01,13,27,12.30
2008,10,01,13,28,12.30
2008,10,01,13,29,12.30
2008,10,01,13,30,12.30
2008,10,01,13,31,12.40
2008,10,01,13,32,12.40
2008,10,01,13,33,12.50
2008,10,01,13,34,12.50
2008,10,01,13,35,12.60
2008,10,01,13,36,12.70
2008,10,01,13,37,12.80
2008,10,01,13,38,12.80
2008,10,01,13,39,12.80
2008,10,01,13,40,12.80
2008,10,01,13,41,12.80
2008,10,01,13,42,12.80
2008,10,01,13,43,12.80
2008,10,01,13,44,12.90
2008,10,01,13,45,13.00
2008,10,01,13,46,13.00
2008,10,01,13,47,13.00
2008,10,01,13,48,13.10
2008,10,01,13,49,13.10
2008,10,01,13,50,13.10
2008,10,01,13,51,13.10
2008,10,01,13,52,13.10
2008,10,01,13,53,13.00
2008,10,01,13,54,13.00
2008,10,01,13,55,13.10
2008,10,01,13,56,13.20
2008,10,01,13,57,13.20
2008,10,01,13,58,13.30
2008,10,01,13,59,13.30
2008,10,01,14,00,13.40
2008,10,01,14,01,13.40
2008,10,01,14,02,13.50
2008,10,01,14,03,13.50
2008,10,01,14,04,13.50
2008,10,01,14,05,13.60
2008,10,01,14,06,13.60
2008,10,01,14,07,13.60
2008,10,01,14,08,13.60
2008,10,01,14,09,13.70
2008,10,01,14,10,13.70
2008,10,01,14,11,13.70
2008,10,01,14,12,13.80
2008,10,01,14,13,13.80
2008,10,01,14,14,13.90
2008,10,01,14,15,13.90
2008,10,01,14,16,13.90
2008,10,01,14,17,13.80
2008,10,01,14,18,13.70
2008,10,01,14,19,13.70
2008,10,01,14,20,13.60
2008,10,01,14,21,13.50
2008,10,01,14,22,13.40
2008,10,01,14,23,13.30
2008,10,01,14,24,13.20
2008,10,01,14,25,13.10
2008,10,01,14,26,13.00
2008,10,01,14,27,12.90
2008,10,01,14,28,12.80
2008,10,01,14,29,12.80
2008,10,01,14,30,12.80
2008,10,01,14,31,12.80
2008,10,01,14,32,12.80
2008,10,01,14,33,12.90
2008,10,01,14,34,12.90
2008,10,01,14,35,12.90
2008,10,01,14,36,13.00
2008,10,01,14,37,13.00
2008,10,01,14,38,13.10
2008,10,01,14,39,13.20
2008,10,01,14,40,13.30
2008,10,01,14,41,13.40
2008,10,01,14,42,13.50
2008,10,01,14,43,13.60
2008,10,01,14,44,13.70
2008,10,01,14,45,13.80
2008,10,01,14,46,13.90
2008,10,01,14,47,14.00
2008,10,01,14,48,14.10
2008,10,01,14,49,14.20
2008,10,01,14,50,14.40
2008,10,01,14,51,14.50
2008,10,01,14,52,14.60
2008,10,01,14,53,14.70
2008,10,01,14,54,14.80
2008,10,01,14,55,14.80
2008,10,01,14,56,14.70
2008,10,01,14,57,14.50
2008,10,01,14,58,14.30
2008,10,01,14,59,14.10
2008,10,01,15,00,13.90
2008,10,01,15,01,13.70
2008,10,01,15,02,13.50
2008,10,01,15,03,13.40
2008,10,01,15,04,13.20
2008,10,01,15,05,13.10
2008,10,01,15,06,13.00
2008,10,01,15,07,12.90
2008,10,01,15,08,12.80
2008,10,01,15,09,12.80
2008,10,01,15,10,12.80
2008,10,01,15,11,12.90
2008,10,01,15,12,12.90
2008,10,01,15,13,12.90
2008,10,01,15,14,12.90
2008,10,01,15,15,12.70
2008,10,01,15,16,12.50
2008,10,01,15,17,12.30
2008,10,01,15,18,12.10
2008,10,01,15,19,12.00
2008,10,01,15,20,11.90
2008,10,01,15,21,11.80
2008,10,01,15,22,11.80
2008,10,01,15,23,11.70
2008,10,01,15,24,11.70
2008,10,01,15,25,11.70
2008,10,01,15,26,11.60
2008,10,01,15,27,11.50
2008,10,01,15,28,11.30
2008,10,01,15,29,11.20
2008,10,01,15,30,11.10
2008,10,01,15,31,11.10
2008,10,01,15,32,11.10
2008,10,01,15,33,11.20
2008,10,01,15,34,11.30
2008,10,01,15,35,11.30
2008,10,01,15,36,11.20
2008,10,01,15,37,11.20
2008,10,01,15,38,11.20
2008,10,01,15,39,11.20
2008,10,01,15,40,11.30
2008,10,01,15,41,11.30
2008,10,01,15,42,11.30
2008,10,01,15,43,11.20
2008,10,01,15,44,11.10
2008,10,01,15,45,11.20
2008,10,01,15,46,11.20
2008,10,01,15,47,11.20
2008,10,01,15,48,11.30
2008,10,01,15,49,11.40
2008,10,01,15,50,11.40
2008,10,01,15,51,11.50
2008,10,01,15,52,11.60
2008,10,01,15,53,11.60
2008,10,01,15,54,11.60
2008,10,01,15,55,11.70
2008,10,01,15,56,11.70
2008,10,01,15,57,11.80
2008,10,01,15,58,11.80
2008,10,01,15,59,11.90
2008,10,01,16,00,12.00
2008,10,01,16,01,12.00
2008,10,01,16,02,12.10
2008,10,01,16,03,12.10
2008,10,01,16,04,12.00
2008,10,01,16,05,11.80
2008,10,01,16,06,11.70
2008,10,01,16,07,11.60
2008,10,01,16,08,11.40
2008,10,01,16,09,11.40
2008,10,01,16,10,11.40
2008,10,01,16,11,11.40
2008,10,01,16,12,11.40
2008,10,01,16,13,11.40
2008,10,01,16,14,11.40
2008,10,01,16,15,11.40
2008,10,01,16,16,11.40
2008,10,01,16,17,11.40
2008,10,01,16,18,11.40
2008,10,01,16,19,11.40
2008,10,01,16,20,11.30
2008,10,01,16,21,11.30
2008,10,01,16,22,11.20
2008,10,01,16,23,11.30
2008,10,01,16,24,11.30
2008,10,01,16,25,11.30
2008,10,01,16,26,11.30
2008,10,01,16,27,11.30
2008,10,01,16,28,11.30
2008,10,01,16,29,11.30
2008,10,01,16,30,11.20
2008,10,01,16,31,11.10
2008,10,01,16,32,11.10
2008,10,01,16,33,11.10
2008,10,01,16,34,11.10
2008,10,01,16,35,11.00
2008,10,01,16,36,10.90
2008,10,01,16,37,10.90
2008,10,01,16,38,10.90
2008,10,01,16,39,10.90
2008,10,01,16,40,10.90
2008,10,01,16,41,11.00
2008,10,01,16,42,11.10
2008,10,01,16,43,11.10
2008,10,01,16,44,11.10
2008,10,01,16,45,11.10
2008,10,01,16,46,11.10
2008,10,01,16,47,11.10
2008,10,01,16,48,11.10
2008,10,01,16,49,11.10
2008,10,01,16,50,11.10
2008,10,01,16,51,11.10
2008,10,01,16,52,11.10
2008,10,01,16,53,11.10
2008,10,01,16,54,11.10
2008,10,01,16,55,11.10
2008,10,01,16,56,10.90
2008,10,01,16,57,10.90
2008,10,01,16,58,10.90
2008,10,01,16,59,10.90
2008,10,01,17,00,10.90
2008,10,01,17,01,10.90
2008,10,01,17,02,10.90
2008,10,01,17,03,10.90
2008,10,01,17,04,10.90
2008,10,01,17,05,10.90
2008,10,01,17,06,10.90
2008,10,01,17,07,10.90
2008,10,01,17,08,10.90
2008,10,01,17,09,11.00
2008,10,01,17,10,11.10
2008,10,01,17,11,11.10
2008,10,01,17,12,11.10
2008,10,01,17,13,11.10
2008,10,01,17,14,11.10
2008,10,01,17,15,11.10
2008,10,01,17,16,11.10
2008,10,01,17,17,11.10
2008,10,01,17,18,11.10
2008,10,01,17,19,11.10
2008,10,01,17,20,11.20
2008,10,01,17,21,11.20
2008,10,01,17,22,11.20
2008,10,01,17,23,11.20
2008,10,01,17,24,11.20
2008,10,01,17,25,11.30
2008,10,01,17,26,11.30
2008,10,01,17,27,11.30
2008,10,01,17,28,11.40
2008,10,01,17,29,11.40
2008,10,01,17,30,11.40
2008,10,01,17,31,11.40
2008,10,01,17,32,11.50